Location: Earls Croome
(52.0667°N, 2.2000°W)
Time: 14:51:47
(UTC+00:00)

COSMOS 2455 - Pass Details

Date: 01 March 2020
Orbit: 901 x 908 km, 67.2° (Epoch: 01 April)

Event Time Altitude Azimuth Distance (km) Brightness Sun altitude
Rises 05:39:48 0° 319° (NW) 3,546 5.6 -12.2°
Reaches altitude 10° 05:42:26 10° 313° (NW) 2,601 4.8 -11.8°
Maximum altitude 05:48:02 42° 245° (WSW) 1,283 3.2 -10.9°
Drops below altitude 10° 05:53:37 10° 176° (S) 2,587 5.3 -10.0°
Sets 05:56:14 0° 170° (S) 3,524 6.1 -9.6°
